Погода в Петриково

Россия / Республика Марий Эл     56°44′18″N   48°13′22″E
темп.,
°C
ветер,
м/с
пор.,
м/с
влажн.,
%
обл.,
%
осадки,
мм/ч
давл.,
гПа
погр.,
м
25 февраля, чт
чт2500:00−24ююз129690 0.0 103420
03:00−25ю339788 0.0 103339
06:00−22ю4896100 0.0 1029222
09:00−20ююв61094100 0.0 1026285
12:00−17ююв71295100 0.3 1023437
15:00−15ююв71294100 1.4 1020595
18:00−17ююв61195100 1.1 1018592
21:00−18юв5109499 1.3 1018399
26 февраля, пт
пт2600:00−19юв499498 0.1 1017313
03:00−20юв499696 0.1 1018216
06:00−21юв499789 0.0 1017211
09:00−19юв599594 0.0 1017318
12:00−15юв61092100 0.0 1015439
15:00−14юв71292100 0.0 1012531
18:00−14юв81692100 0.1 1007577
21:00−12юв91694100 3.0 1002621
27 февраля, сб
сб2700:00−12юв71494100 4.8 999548
03:00−11юв61095100 5.7 998355
06:00−11вюв5994100 0.8 996286
09:00−10в5795100 1.5 997289
12:00−8в5794100 0.8 998366
15:00−8всв6994100 1.4 999449
18:00−11св61193100 0.4 1001392
21:00−13св5109397 0.6 1003340
28 февраля, вс
вс2800:00−15ссв499590 0.0 1004213
03:00−14ссв499492 0.1 1007304
06:00−15ссв599498 0.1 1008307
09:00−17ссв589499 0.2 1010274
12:00−15с579182 0.0 1011350
15:00−14с589183 0.0 1012424
18:00−18с479786 0.0 1014137
21:00−20с349877 0.0 101769
1 марта, пн
пн100:00−22с34970 0.0 101839
03:00−23с34970 0.0 102045
06:00−24с34970 0.0 102237
09:00−20с23960 0.0 1023123
12:00−15сз238848 0.0 1023274
15:00−12з238870 0.0 1023322
18:00−16зюз239631 0.0 102120
21:00−17юз479844 0.0 1021107